Location: Dürabuch
(48.2640°N, 11.2185°E)
Time: 09:37:17
(UTC+00:00)

DELTA 2 R/B (1) - Pass Details

Date: 23 May 2024
Orbit: 788 x 801 km, 39.6° (Epoch: 15 June)

Event Time Altitude Azimuth Distance (km) Brightness Sun altitude
Exits shadow 00:26:20 33° 173° (S) 1,298 4.2 -19.1°
Drops below altitude 10° 00:31:09 10° 113° (ESE) 2,350 6.0 -18.8°
Sets 00:33:49 0° 104° (ESE) 3,277 6.9 -18.7°
